NE2X Weather Reports


time (UTC)temp
C
wind
direction
speed
KPH
gust
KPH
rain 1hr
cm
rain 24hr
cm
rain mn
cm
humidity
%
barometer
mb
20260504043602 10 228 1.6 6.4 0.00 0.00 0.00 50 1013.0
20260504042703 10 245 1.6 11.3 0.00 0.00 0.00 50 1012.9
20260504041802 10 235 1.6 6.4 0.00 0.00 0.00 51 1012.8
20260504040903 10 283 1.6 6.4 0.00 0.00 0.00 51 1012.7
20260504040003 9 218 1.6 8.0 0.00 0.00 0.00 52 1012.7
20260504035403 9 170 1.6 8.0 0.00 0.00 0.00 52 1012.7
20260504034503 9 0 0.0 4.8 0.00 0.00 0.00 51 1012.7
20260504033624 9 316 1.6 4.8 0.00 0.00 0.00 51 1012.6
20260504032703 9 0 0.0 3.2 0.00 0.00 0.00 52 1012.7
20260504031824 8 0 0.0 3.2 0.00 0.00 0.00 52 1012.7
20260504030903 8 0 0.0 3.2 0.00 0.00 0.00 55 1012.6
20260504030024 8 0 0.0 4.8 0.00 0.00 0.00 54 1012.7
20260504025403 8 0 0.0 3.2 0.00 0.00 0.00 58 1012.6
20260504024503 7 0 0.0 1.6 0.00 0.00 0.00 58 1012.6
20260504023605 7 0 0.0 3.2 0.00 0.00 0.00 58 1012.6
20260504022704 7 0 0.0 3.2 0.00 0.00 0.00 59 1012.7
20260504021825 7 0 0.0 3.2 0.00 0.00 0.00 59 1012.7
20260504020925 8 0 0.0 3.2 0.00 0.00 0.00 58 1012.7
20260504020005 8 0 0.0 1.6 0.00 0.00 0.00 58 1012.7
20260504015405 8 0 0.0 0.0 0.00 0.00 0.00 58 1012.7
20260504014504 8 0 0.0 1.6 0.00 0.00 0.00 57 1012.6
20260504013604 8 0 0.0 1.6 0.00 0.00 0.00 56 1012.5
20260504012704 9 0 0.0 1.6 0.00 0.00 0.00 54 1012.4
20260504011825 10 0 0.0 1.6 0.00 0.00 0.00 51 1012.4
20260504010904 10 271 1.6 3.2 0.00 0.00 0.00 50 1012.3
20260504010004 10 0 0.0 1.6 0.00 0.00 0.00 48 1012.1
20260504005425 11 0 0.0 1.6 0.00 0.00 0.00 48 1012.1
20260504004504 11 0 0.0 1.6 0.00 0.00 0.00 42 1011.9
20260504003604 12 0 0.0 1.6 0.00 0.00 0.00 39 1011.9
20260504002704 12 292 1.6 4.8 0.00 0.00 0.00 39 1011.8
20260504001825 12 0 0.0 6.4 0.00 0.00 0.00 37 1011.6
20260504000904 13 280 1.6 6.4 0.00 0.00 0.00 36 1011.3
20260504000004 13 277 1.6 4.8 0.00 0.00 0.00 37 1011.3
20260503235404 13 291 1.6 3.2 0.00 0.00 0.00 35 1011.2
20260503234525 13 300 1.6 6.4 0.00 0.00 0.00 36 1011.1
20260503233604 13 284 3.2 8.0 0.00 0.00 0.00 36 1010.9
20260503232704 13 306 3.2 6.4 0.00 0.00 0.00 34 1010.9
20260503231804 14 299 1.6 6.4 0.00 0.00 0.00 35 1010.8
20260503230904 14 322 3.2 9.7 0.00 0.00 0.00 31 1010.8
20260503230004 14 322 4.8 17.7 0.00 0.00 0.00 31 1010.7
20260503225425 15 330 4.8 17.7 0.00 0.00 0.00 31 1010.7
20260503224504 15 328 4.8 11.3 0.00 0.00 0.00 30 1010.6
20260503223624 15 323 4.8 16.1 0.00 0.00 0.00 31 1010.6
20260503222703 15 325 4.8 8.0 0.00 0.00 0.00 31 1010.6
20260503221825 15 321 4.8 12.9 0.00 0.00 0.00 29 1010.6
20260503220904 15 321 4.8 16.1 0.00 0.00 0.00 30 1010.6
20260503220004 15 329 6.4 16.1 0.00 0.00 0.00 29 1010.6
20260503215425 15 317 8.0 20.9 0.00 0.00 0.00 28 1010.6
20260503214503 15 324 6.4 17.7 0.00 0.00 0.00 28 1010.7
20260503213603 15 318 6.4 24.1 0.00 0.00 0.00 29 1010.6
20260503212724 15 328 6.4 24.1 0.00 0.00 0.00 29 1010.6
20260503211825 15 331 9.7 24.1 0.00 0.00 0.00 29 1010.5
20260503210903 15 314 6.4 16.1 0.00 0.00 0.00 30 1010.5
20260503210004 15 335 8.0 24.1 0.00 0.00 0.00 29 1010.4
20260503205403 15 336 6.4 16.1 0.00 0.00 0.00 30 1010.5
20260503204504 15 328 6.4 14.5 0.00 0.00 0.00 29 1010.6
20260503203603 15 328 6.4 16.1 0.00 0.00 0.00 32 1010.5
20260503202703 14 329 9.7 24.1 0.00 0.00 0.00 31 1010.6
20260503201803 14 319 8.0 24.1 0.00 0.00 0.00 29 1010.5
20260503200905 15 328 4.8 16.1 0.00 0.00 0.00 31 1010.7
20260503200003 15 314 6.4 19.3 0.00 0.00 0.00 32 1010.8
20260503195403 14 319 8.0 20.9 0.00 0.00 0.00 31 1010.9
20260503194503 14 329 8.0 19.3 0.00 0.00 0.00 30 1010.8
20260503193603 14 329 6.4 14.5 0.00 0.00 0.00 32 1011.0
20260503192724 13 328 6.4 22.5 0.00 0.00 0.00 33 1011.1
20260503191803 13 334 9.7 20.9 0.00 0.00 0.00 32 1011.1
20260503190903 13 331 9.7 20.9 0.00 0.00 0.00 32 1011.2
20260503190003 14 313 8.0 22.5 0.00 0.00 0.00 35 1011.3
20260503185403 14 325 8.0 22.5 0.00 0.00 0.00 33 1011.3
20260503184503 13 330 6.4 20.9 0.00 0.00 0.00 33 1011.3
20260503183603 13 321 6.4 19.3 0.00 0.00 0.00 35 1011.4
20260503182703 13 328 6.4 20.9 0.00 0.00 0.00 37 1011.4
20260503181824 12 329 8.0 24.1 0.00 0.00 0.00 36 1011.5
20260503180903 12 317 6.4 14.5 0.00 0.00 0.00 37 1011.4
20260503180004 12 322 8.0 19.3 0.00 0.00 0.00 39 1011.6
20260503175403 12 324 4.8 16.1 0.00 0.00 0.00 37 1011.7
20260503174524 11 320 6.4 19.3 0.00 0.00 0.00 40 1011.8
20260503173604 12 312 8.0 16.1 0.00 0.00 0.00 40 1011.9
20260503172704 11 328 8.0 19.3 0.00 0.00 0.00 42 1011.9
20260503171804 11 315 8.0 29.0 0.00 0.00 0.00 39 1011.9
20260503170905 12 321 9.7 20.9 0.00 0.00 0.00 42 1012.0
20260503150924 11 332 4.8 12.9 0.00 0.00 0.00 36 1012.3
20260503130903 8 335 8.0 20.9 0.00 0.00 0.00 53 1012.4
20260503080925 7 338 4.8 11.3 0.00 0.03 0.00 54 1010.7
20260503072704 7 347 3.2 4.8 0.00 0.03 0.00 53 1010.7
20260503071804 7 341 3.2 8.0 0.00 0.03 0.00 52 1010.7
20260503070904 7 346 3.2 8.0 0.00 0.03 0.00 52 1010.7
20260503054504 8 334 4.8 9.7 0.00 0.03 0.00 46 1011.1
20260503053604 9 333 4.8 9.7 0.00 0.03 0.00 46 1011.1
20260503052704 9 341 4.8 12.9 0.00 0.03 0.00 45 1011.3
20260503051825 9 331 3.2 8.0 0.00 0.03 0.00 45 1011.3
20260503050904 9 344 4.8 6.4 0.00 0.03 0.00 45 1011.4
20260503050006 9 344 4.8 11.3 0.00 0.03 0.00 44 1011.5
20260503045404 10 337 4.8 11.3 0.00 0.03 0.00 43 1011.6
20260503044504 10 339 4.8 9.7 0.00 0.03 0.00 43 1011.5